Погода в Виноградовке

Россия / Хабаровский край     47°26′02″N   134°29′48″E
темп.,
°C
ветер,
м/с
пор.,
м/с
влажн.,
%
обл.,
%
осадки,
мм/ч
давл.,
гПа
погр.,
м
20 апреля, вт
вт2001:00+8зсз61153100 0.6 10011573
04:00+2зсз1014370 0.6 1005887
07:00+1зсз915390 0.0 10081594
10:00+3зсз12172613 0.0 10072330
13:00+4сз121624100 0.0 10083096
16:00+6сз10142397 0.0 10092673
19:00+7сз6112554 0.0 10101721
22:00+5зсз613304 0.0 1013470
21 апреля, ср
ср2101:00+4з614330 0.0 1015387
04:00+2зюз511330 0.0 1016213
07:00+2юз37360 0.0 1018144
10:00+11з46190 0.0 1018663
13:00+17зсз58174 0.0 10171626
16:00+19зсз68170 0.0 10161898
19:00+17ссз33250 0.0 101652
22:00+12юв22330 0.0 101810
22 апреля, чт
чт2201:00+10вюв22360 0.0 101910
04:00+9в22400 0.0 102018
07:00+9юв22430 0.0 102115
10:00+18юв12250 0.0 1021482
13:00+23ююз34173 0.0 10201588
16:00+25ююз45165 0.0 10181960
19:00+22ю35246 0.0 101887
22:00+17ю343138 0.0 101946
23 апреля, пт
пт2301:00+15ююз3633100 0.0 102087
04:00+13ююз61344100 0.0 1020288
07:00+12ююз61345100 0.0 1021375
10:00+15ююз6836100 0.0 1021544
13:00+18юз6733100 0.0 1020903
16:00+20зюз6734100 0.0 10191472
19:00+18з4845100 0.0 1018331
22:00+12сз6980100 0.6 1019670
24 апреля, сб
сб2401:00+9зсз4873100 1.9 10201218
04:00+5сз4956100 2.3 1021675
07:00+4сз6958100 0.1 1021952
10:00+3сз2495100 1.4 1022477
13:00+10сз463420 0.1 10191885
16:00+12сз792134 0.1 10172829
19:00+10ссз81228100 0.0 10162430
22:00+8сз61128100 0.1 1016759